| time (UTC) | temp C | wind direction | speed KPH | gust KPH | rain 1hr cm | rain 24hr cm | rain mn cm | humidity % | barometer mb |
| 20260509224505 | 23 | 256 | 4.8 | 12.9 | 0.00 | 0.00 | 0.00 | 69 | 1012.9 |
| 20260509223005 | 23 | 260 | 4.8 | 12.9 | 0.00 | 0.00 | 0.00 | 70 | 1012.8 |
| 20260509221509 | 23 | 251 | 3.2 | 9.7 | 0.00 | 0.00 | 0.00 | 72 | 1012.7 |
| 20260509220004 | 22 | 273 | 1.6 | 6.4 | 0.00 | 0.00 | 0.00 | 74 | 1012.6 |
| 20260509214505 | 22 | 242 | 0.0 | 8.0 | 0.00 | 0.00 | 0.00 | 75 | 1012.3 |
| 20260509213005 | 22 | 206 | 0.0 | 6.4 | 0.00 | 0.00 | 0.00 | 75 | 1012.0 |
| 20260509211502 | 22 | 285 | 0.0 | 6.4 | 0.00 | 0.00 | 0.00 | 75 | 1011.7 |
| 20260509210002 | 22 | 249 | 0.0 | 6.4 | 0.00 | 0.00 | 0.00 | 75 | 1011.5 |
| 20260509204502 | 22 | 266 | 0.0 | 4.8 | 0.00 | 0.00 | 0.00 | 75 | 1011.4 |
| 20260509203001 | 22 | 218 | 1.6 | 8.0 | 0.00 | 0.00 | 0.00 | 74 | 1011.4 |
| 20260509201626 | 22 | 267 | 1.6 | 9.7 | 0.00 | 0.00 | 0.00 | 74 | 1011.3 |
| 20260509200108 | 22 | 276 | 1.6 | 6.4 | 0.00 | 0.00 | 0.00 | 74 | 1011.2 |
| 20260509194559 | 23 | 255 | 0.0 | 4.8 | 0.00 | 0.00 | 0.00 | 74 | 1011.1 |
| 20260509193131 | 23 | 254 | 0.0 | 6.4 | 0.00 | 0.00 | 0.00 | 73 | 1011.0 |
| 20260509191614 | 23 | 279 | 0.0 | 6.4 | 0.00 | 0.00 | 0.00 | 73 | 1011.0 |
| 20260509190059 | 23 | 278 | 0.0 | 6.4 | 0.00 | 0.00 | 0.00 | 73 | 1011.1 |
| 20260509184601 | 23 | 268 | 0.0 | 6.4 | 0.00 | 0.00 | 0.00 | 73 | 1011.1 |
| 20260509183058 | 23 | 209 | 0.0 | 4.8 | 0.00 | 0.00 | 0.00 | 72 | 1011.1 |
| 20260509181601 | 23 | 246 | 3.2 | 8.0 | 0.00 | 0.00 | 0.00 | 72 | 1011.1 |
| 20260509180105 | 23 | 256 | 3.2 | 11.3 | 0.00 | 0.00 | 0.00 | 72 | 1011.1 |
| 20260509174555 | 23 | 270 | 1.6 | 8.0 | 0.00 | 0.00 | 0.00 | 72 | 1011.2 |
| 20260509173102 | 23 | 272 | 1.6 | 9.7 | 0.00 | 0.00 | 0.00 | 73 | 1011.3 |
| 20260509171554 | 23 | 230 | 1.6 | 8.0 | 0.00 | 0.00 | 0.00 | 73 | 1011.4 |
| 20260509170058 | 23 | 216 | 0.0 | 8.0 | 0.00 | 0.00 | 0.00 | 72 | 1011.5 |
| 20260509164602 | 23 | 241 | 1.6 | 9.7 | 0.00 | 0.00 | 0.00 | 72 | 1011.5 |
| 20260509163052 | 23 | 268 | 3.2 | 9.7 | 0.00 | 0.00 | 0.00 | 73 | 1011.5 |
| 20260509161557 | 23 | 240 | 0.0 | 4.8 | 0.00 | 0.00 | 0.00 | 73 | 1011.7 |
| 20260509160052 | 23 | 181 | 1.6 | 8.0 | 0.00 | 0.00 | 0.00 | 73 | 1011.9 |
| 20260509154551 | 23 | 214 | 0.0 | 4.8 | 0.00 | 0.00 | 0.00 | 72 | 1011.9 |
| 20260509153051 | 24 | 204 | 0.0 | 8.0 | 0.00 | 0.00 | 0.00 | 71 | 1012.0 |
| 20260509151550 | 24 | 243 | 1.6 | 9.7 | 0.00 | 0.00 | 0.00 | 71 | 1012.0 |
| 20260509150050 | 24 | 185 | 3.2 | 9.7 | 0.00 | 0.00 | 0.00 | 70 | 1012.1 |
| 20260509144551 | 25 | 258 | 0.0 | 9.7 | 0.00 | 0.00 | 0.00 | 71 | 1012.3 |
| 20260509143051 | 25 | 269 | 1.6 | 9.7 | 0.00 | 0.00 | 0.00 | 71 | 1012.3 |
| 20260509141550 | 25 | 266 | 3.2 | 8.0 | 0.00 | 0.00 | 0.00 | 71 | 1012.4 |
| 20260509140049 | 25 | 240 | 0.0 | 6.4 | 0.00 | 0.00 | 0.00 | 72 | 1012.3 |
| 20260509134550 | 25 | 277 | 3.2 | 6.4 | 0.00 | 0.00 | 0.00 | 72 | 1012.4 |
| 20260509133050 | 25 | 269 | 3.2 | 8.0 | 0.00 | 0.00 | 0.00 | 71 | 1012.4 |
| 20260509131551 | 25 | 268 | 1.6 | 6.4 | 0.00 | 0.00 | 0.00 | 70 | 1012.4 |
| 20260509130059 | 26 | 282 | 0.0 | 4.8 | 0.00 | 0.00 | 0.00 | 69 | 1012.6 |
| 20260509124549 | 26 | 279 | 0.0 | 6.4 | 0.00 | 0.00 | 0.00 | 69 | 1012.6 |
| 20260509123051 | 26 | 273 | 1.6 | 8.0 | 0.00 | 0.00 | 0.00 | 69 | 1012.4 |
| 20260509121546 | 26 | 278 | 1.6 | 6.4 | 0.00 | 0.00 | 0.00 | 68 | 1012.5 |
| 20260509120051 | 26 | 277 | 1.6 | 4.8 | 0.00 | 0.00 | 0.00 | 68 | 1012.3 |
| 20260509114548 | 26 | 204 | 1.6 | 6.4 | 0.00 | 0.00 | 0.00 | 69 | 1012.2 |
| 20260509113048 | 26 | 254 | 0.0 | 6.4 | 0.00 | 0.00 | 0.00 | 70 | 1012.1 |
| 20260509111547 | 26 | 275 | 1.6 | 8.0 | 0.00 | 0.00 | 0.00 | 71 | 1012.0 |
| 20260509110046 | 25 | 266 | 0.0 | 3.2 | 0.00 | 0.00 | 0.00 | 74 | 1011.8 |
| 20260509104545 | 25 | 206 | 0.0 | 0.0 | 0.00 | 0.00 | 0.00 | 78 | 1011.7 |
| 20260509103043 | 25 | 206 | 0.0 | 0.0 | 0.00 | 0.00 | 0.00 | 75 | 1011.6 |
| 20260509101543 | 26 | 206 | 0.0 | 1.6 | 0.00 | 0.00 | 0.00 | 73 | 1011.4 |
| 20260509100042 | 26 | 206 | 0.0 | 0.0 | 0.00 | 0.00 | 0.00 | 74 | 1011.2 |
| 20260509094539 | 26 | 206 | 0.0 | 1.6 | 0.00 | 0.00 | 0.00 | 74 | 1011.2 |
| 20260509093039 | 27 | 206 | 0.0 | 0.0 | 0.00 | 0.00 | 0.00 | 73 | 1011.0 |
| 20260509091538 | 28 | 205 | 0.0 | 0.0 | 0.00 | 0.00 | 0.00 | 70 | 1010.9 |
| 20260509090037 | 28 | 205 | 0.0 | 1.6 | 0.00 | 0.00 | 0.00 | 66 | 1010.7 |
| 20260509084540 | 29 | 256 | 0.0 | 3.2 | 0.00 | 0.00 | 0.00 | 64 | 1010.4 |
| 20260509083041 | 29 | 241 | 0.0 | 9.7 | 0.00 | 0.00 | 0.00 | 62 | 1010.3 |
| 20260509081543 | 30 | 221 | 0.0 | 6.4 | 0.00 | 0.00 | 0.00 | 60 | 1010.1 |
| 20260509080041 | 30 | 206 | 0.0 | 8.0 | 0.00 | 0.00 | 0.00 | 58 | 1010.0 |
| 20260509074537 | 31 | 266 | 1.6 | 9.7 | 0.00 | 0.00 | 0.00 | 58 | 1009.8 |
| 20260509073036 | 31 | 213 | 3.2 | 9.7 | 0.00 | 0.00 | 0.00 | 56 | 1009.6 |
| 20260509071535 | 31 | 216 | 0.0 | 9.7 | 0.00 | 0.00 | 0.00 | 57 | 1009.5 |
| 20260509070035 | 31 | 212 | 1.6 | 11.3 | 0.00 | 0.00 | 0.00 | 57 | 1009.5 |
| 20260509064535 | 31 | 213 | 3.2 | 8.0 | 0.00 | 0.00 | 0.00 | 56 | 1009.4 |
| 20260509063033 | 31 | 220 | 4.8 | 12.9 | 0.00 | 0.00 | 0.00 | 55 | 1009.4 |
| 20260509061533 | 31 | 209 | 6.4 | 12.9 | 0.00 | 0.00 | 0.00 | 54 | 1009.4 |
| 20260509060032 | 31 | 199 | 1.6 | 17.7 | 0.00 | 0.00 | 0.00 | 54 | 1009.4 |
| 20260509054531 | 31 | 222 | 3.2 | 12.9 | 0.00 | 0.00 | 0.00 | 55 | 1009.4 |
| 20260509053031 | 31 | 194 | 6.4 | 17.7 | 0.00 | 0.00 | 0.00 | 55 | 1009.6 |
| 20260509051528 | 31 | 176 | 4.8 | 12.9 | 0.00 | 0.00 | 0.00 | 54 | 1009.7 |
| 20260509050036 | 31 | 180 | 3.2 | 14.5 | 0.00 | 0.00 | 0.00 | 53 | 1009.9 |
| 20260509044522 | 31 | 220 | 4.8 | 16.1 | 0.00 | 0.00 | 0.00 | 52 | 1010.1 |
| 20260509043020 | 31 | 176 | 1.6 | 11.3 | 0.00 | 0.00 | 0.00 | 55 | 1010.2 |
| 20260509041517 | 30 | 210 | 3.2 | 16.1 | 0.00 | 0.00 | 0.00 | 55 | 1010.4 |
| 20260509040014 | 30 | 215 | 4.8 | 17.7 | 0.00 | 0.00 | 0.00 | 56 | 1010.6 |
| 20260509034515 | 30 | 225 | 1.6 | 12.9 | 0.00 | 0.00 | 0.00 | 55 | 1010.7 |
| 20260509033013 | 30 | 223 | 6.4 | 12.9 | 0.00 | 0.00 | 0.00 | 58 | 1010.9 |
| 20260509031515 | 30 | 202 | 4.8 | 14.5 | 0.00 | 0.00 | 0.00 | 58 | 1011.1 |
| 20260509030107 | 29 | 190 | 6.4 | 19.3 | 0.00 | 0.00 | 0.00 | 58 | 1011.3 |
| 20260509024510 | 28 | 254 | 4.8 | 17.7 | 0.00 | 0.00 | 0.00 | 61 | 1011.4 |
| 20260509023007 | 28 | 194 | 4.8 | 16.1 | 0.00 | 0.00 | 0.00 | 61 | 1011.7 |
| 20260509021502 | 27 | 268 | 6.4 | 19.3 | 0.00 | 0.00 | 0.00 | 63 | 1012.0 |
| 20260509020100 | 28 | 230 | 9.7 | 20.9 | 0.00 | 0.00 | 0.00 | 61 | 1012.3 |
| 20260509014554 | 27 | 197 | 6.4 | 17.7 | 0.00 | 0.00 | 0.00 | 64 | 1012.7 |
| 20260509013058 | 27 | 180 | 8.0 | 22.5 | 0.00 | 0.00 | 0.00 | 64 | 1012.8 |
| 20260509011549 | 27 | 227 | 8.0 | 17.7 | 0.00 | 0.00 | 0.00 | 65 | 1012.9 |
| 20260509010048 | 27 | 219 | 11.3 | 24.1 | 0.00 | 0.00 | 0.00 | 63 | 1012.9 |
| 20260509004545 | 26 | 218 | 12.9 | 22.5 | 0.00 | 0.00 | 0.00 | 64 | 1013.0 |
| 20260509003056 | 25 | 232 | 6.4 | 17.7 | 0.00 | 0.00 | 0.00 | 64 | 1013.0 |
| 20260509001538 | 25 | 171 | 4.8 | 14.5 | 0.00 | 0.00 | 0.00 | 65 | 1013.1 |
| 20260509000041 | 25 | 261 | 8.0 | 19.3 | 0.00 | 0.00 | 0.00 | 65 | 1013.2 |
| 20260508234537 | 24 | 262 | 8.0 | 19.3 | 0.00 | 0.00 | 0.00 | 67 | 1013.3 |
| 20260508233029 | 23 | 234 | 8.0 | 19.3 | 0.00 | 0.00 | 0.00 | 67 | 1013.2 |
| 20260508231525 | 23 | 261 | 6.4 | 17.7 | 0.00 | 0.00 | 0.00 | 69 | 1013.0 |
| 20260508230021 | 22 | 301 | 3.2 | 16.1 | 0.00 | 0.00 | 0.00 | 70 | 1013.0 |